Regional Weather Roundup
Issued by NWS Goodland, KS

Home | Current Version | Previous Version | Graphics & Text | Print | Product List | Glossary On
Versions: 1 2 3 4 5 6 7 8 9 10 11 12 13 14 15 16 17 18 19 20 21 22 23 24 25 26 27 28 29 30 31 32 33 34 35 36 37 38 39 40 41 42 43 44 45 46 47 48 49 50
073
ASUS43 KGLD 091159
RWRGLD

GOODLAND FORECAST AREA HOURLY WEATHER ROUNDUP
NATIONAL WEATHER SERVICE GOODLAND KS
500 AM MST FRI DEC 09 2016

...OFFICIAL OBSERVATIONS...

CITY           SKY/WX    TMP DP  RH WIND       PRES   REMARKS
GOODLAND KS    CLOUDY     8   4  83 SE10      30.25F WCI  -6
HILL CITY KS   CLOUDY    17   9  70 SE9       30.44F
IMPERIAL NEB   CLOUDY    12   4  70 SE12      30.29F WCI  -2
MCCOOK NEB     CLOUDY     9   3  77 E5        30.38F
AKRON CO       CLOUDY     7   0  73 S9        30.11F
BURLINGTON CO  CLOUDY     5  -1  76 S9        30.19F
LIMON CO       CLOUDY     3  -1  83 CALM      30.10F
$$

...UNOFFICIAL OBSERVATIONS...

CITY           SKY/WX    TMP DP  RH WIND       PRES   REMARKS
COLBY KS       CLOUDY    16  10  79 SE14      30.33F WCI   1
LENORA KS        N/A     14  32 100 MISG        N/A
NORTON KS      CLOUDY    14   7  73 SE5       30.43S
SHARON SPRINGS   N/A     13   8  81 SE12        N/A  WCI  -1
TRENTON NEB      N/A     10  32 100 S6          N/A
KIT CARSON CO    N/A      5  -1  75 CALM        N/A
YUMA CO        FAIR       5   1  85 S6        30.18S
$$




USA.gov is the U.S. government's official web portal to all federal, state and local government web resources and services.